DW7980 Weather Reports


Display with metric or nautical units.
time (UTC)temp
F
wind
direction
speed
MPH
gust
MPH
rain 1hr
in
rain 24hr
in
rain mn
in
humidity
%
barometer
mb
20260506204550 62 188 0.0 7.0 0.00 0.00 0.00 78 1021.3
20260506204039 62 0 0.0 7.0 0.00 0.00 0.00 78 1021.2
20260506203538 62 161 2.0 6.0 0.00 0.00 0.00 77 1021.2
20260506203045 62 214 1.0 6.0 0.00 0.00 0.00 78 1021.4
20260506202538 62 169 2.0 6.0 0.00 0.00 0.00 79 1021.4
20260506202038 61 198 2.0 6.0 0.00 0.00 0.00 79 1021.4
20260506201544 61 271 1.0 4.0 0.00 0.00 0.00 79 1021.5
20260506201040 61 0 1.0 7.0 0.00 0.00 0.00 79 1021.6
20260506200539 61 180 3.0 7.0 0.00 0.00 0.00 80 1021.6
20260506200042 61 167 1.0 6.0 0.00 0.00 0.00 80 1021.6
20260506195538 60 175 1.0 6.0 0.00 0.00 0.00 79 1021.7
20260506195038 61 169 2.0 5.0 0.00 0.00 0.00 79 1021.7
20260506194550 61 178 2.0 5.0 0.00 0.00 0.00 78 1021.7
20260506194038 61 0 1.0 5.0 0.00 0.00 0.00 79 1021.7
20260506193543 61 169 2.0 5.0 0.00 0.00 0.00 79 1021.7
20260506193051 61 168 0.0 5.0 0.00 0.00 0.00 80 1021.7
20260506192538 60 146 1.0 6.0 0.00 0.00 0.00 80 1021.5
20260506192036 60 212 2.0 6.0 0.00 0.00 0.00 80 1021.5
20260506191546 60 288 1.0 5.0 0.00 0.00 0.00 80 1021.5
20260506191038 60 164 2.0 5.0 0.00 0.00 0.00 79 1021.5
20260506190538 60 184 0.0 5.0 0.00 0.00 0.00 81 1021.5
20260506190049 60 159 2.0 7.0 0.00 0.00 0.00 79 1021.4
20260506185542 59 180 3.0 7.0 0.00 0.00 0.00 81 1021.5
20260506185038 59 107 1.0 6.0 0.00 0.00 0.00 81 1021.4
20260506184551 59 159 2.0 6.0 0.00 0.00 0.00 81 1021.4
20260506184038 59 183 0.0 4.0 0.00 0.00 0.00 82 1021.5
20260506183540 59 183 2.0 4.0 0.00 0.00 0.00 81 1021.5
20260506183053 59 0 0.0 5.0 0.00 0.00 0.00 81 1021.4
20260506182537 59 0 0.0 5.0 0.00 0.00 0.00 82 1021.4
20260506182037 59 0 2.0 5.0 0.00 0.00 0.00 82 1021.5
20260506181559 58 171 1.0 5.0 0.00 0.00 0.00 83 1021.4
20260506181037 58 172 1.0 4.0 0.00 0.00 0.00 82 1021.4
20260506180543 58 169 0.0 5.0 0.00 0.00 0.00 82 1021.4
20260506180053 58 174 1.0 5.0 0.00 0.00 0.00 82 1021.4
20260506175538 58 189 0.0 5.0 0.00 0.00 0.00 83 1021.5
20260506175039 58 0 0.0 8.0 0.00 0.00 0.00 83 1021.4
20260506174553 58 241 1.0 8.0 0.00 0.00 0.00 84 1021.3
20260506174036 57 164 1.0 5.0 0.00 0.00 0.00 84 1021.2
20260506173538 57 191 1.0 5.0 0.00 0.00 0.00 84 1021.2
20260506173049 57 161 1.0 6.0 0.00 0.00 0.00 84 1021.3
20260506172538 57 173 2.0 6.0 0.00 0.00 0.00 84 1021.1
20260506172038 57 179 1.0 6.0 0.00 0.00 0.00 84 1021.2
20260506171550 57 179 2.0 6.0 0.00 0.00 0.00 84 1021.3
20260506171038 57 170 0.0 4.0 0.00 0.00 0.00 84 1021.3
20260506170538 57 169 1.0 5.0 0.00 0.00 0.00 84 1021.2
20260506170054 57 0 1.0 6.0 0.00 0.00 0.00 84 1021.1
20260506165538 57 0 2.0 6.0 0.00 0.00 0.00 84 1021.2
20260506165037 57 181 1.0 4.0 0.00 0.00 0.00 84 1021.2
20260506164601 57 175 1.0 4.0 0.00 0.00 0.00 84 1021.2
20260506164039 57 0 0.0 3.0 0.00 0.00 0.00 85 1021.1
20260506163537 57 0 0.0 3.0 0.00 0.00 0.00 85 1021.1
20260506163056 57 179 0.0 5.0 0.00 0.00 0.00 85 1020.9
20260506162541 57 180 2.0 5.0 0.00 0.00 0.00 85 1020.8
20260506162041 57 171 1.0 5.0 0.00 0.00 0.00 85 1020.9
20260506161546 57 222 0.0 5.0 0.00 0.00 0.00 85 1020.9
20260506161038 56 172 1.0 6.0 0.00 0.00 0.00 84 1020.8
20260506160540 56 284 0.0 6.0 0.00 0.00 0.00 85 1020.8
20260506160057 56 0 1.0 6.0 0.00 0.00 0.00 85 1020.4
20260506155538 56 0 2.0 6.0 0.00 0.00 0.00 85 1020.2
20260506155038 56 0 1.0 3.0 0.00 0.00 0.00 85 1020.4
20260506154602 56 182 0.0 3.0 0.00 0.00 0.00 85 1020.8
20260506154037 56 180 0.0 3.0 0.00 0.00 0.00 85 1021.0
20260506153541 56 0 1.0 3.0 0.00 0.00 0.00 85 1021.0
20260506153048 56 123 0.0 2.0 0.00 0.00 0.00 85 1021.1
20260506152538 56 0 0.0 2.0 0.00 0.00 0.00 85 1021.2
20260506152037 57 0 0.0 2.0 0.00 0.00 0.00 85 1021.1
20260506151555 57 0 0.0 1.0 0.00 0.00 0.00 85 1021.1
20260506151038 57 0 0.0 1.0 0.00 0.00 0.00 85 1021.1
20260506150539 57 0 0.0 1.0 0.00 0.00 0.00 85 1021.0
20260506150100 57 100 0.0 1.0 0.00 0.00 0.00 85 1020.9
20260506145538 57 0 0.0 0.0 0.00 0.00 0.00 86 1021.0
20260506145038 56 0 0.0 0.0 0.00 0.00 0.00 86 1020.9
20260506144550 56 0 0.0 0.0 0.00 0.00 0.00 86 1020.7
20260506144038 56 0 0.0 0.0 0.00 0.00 0.00 86 1020.7
20260506143538 56 0 0.0 0.0 0.00 0.00 0.00 86 1020.4
20260506143053 56 0 0.0 1.0 0.00 0.00 0.00 86 1020.3
20260506142538 56 0 0.0 2.0 0.00 0.00 0.00 86 1020.2
20260506142037 56 0 0.0 2.0 0.00 0.00 0.00 86 1020.3
20260506141556 56 0 0.0 2.0 0.00 0.00 0.00 86 1020.2
20260506141039 55 0 0.0 0.0 0.00 0.00 0.00 86 1020.4
20260506140539 55 0 0.0 0.0 0.00 0.00 0.00 86 1020.3
20260506140048 55 0 0.0 0.0 0.00 0.00 0.00 86 1020.2
20260506135538 55 0 0.0 0.0 0.00 0.00 0.00 86 1020.3
20260506135038 55 0 0.0 0.0 0.00 0.00 0.00 86 1020.2
20260506134551 55 0 0.0 0.0 0.00 0.00 0.00 86 1020.2
20260506134040 55 0 0.0 0.0 0.00 0.00 0.00 86 1020.1
20260506133537 55 0 0.0 0.0 0.00 0.00 0.00 86 1020.0
20260506133101 55 0 0.0 0.0 0.00 0.00 0.00 86 1020.0
20260506132538 55 0 0.0 1.0 0.00 0.00 0.00 86 1020.0
20260506132041 55 0 0.0 1.0 0.00 0.00 0.00 86 1020.0
20260506131558 55 0 0.0 0.0 0.00 0.00 0.00 86 1020.0
20260506131038 55 0 0.0 0.0 0.00 0.00 0.00 86 1020.1
20260506130538 55 0 0.0 0.0 0.00 0.00 0.00 86 1020.1
20260506130053 55 0 0.0 0.0 0.00 0.00 0.00 86 1020.0
20260506125537 55 0 0.0 0.0 0.00 0.00 0.00 86 1019.9
20260506125037 55 0 0.0 0.0 0.00 0.00 0.00 86 1019.8
20260506124548 55 0 0.0 0.0 0.00 0.00 0.00 86 1019.8
20260506124037 55 0 0.0 0.0 0.00 0.00 0.00 85 1019.8
20260506123542 55 0 0.0 0.0 0.00 0.00 0.00 85 1019.9
20260506123049 55 0 0.0 0.0 0.00 0.00 0.00 85 1019.8
20260506122540 55 0 0.0 0.0 0.00 0.00 0.00 85 1019.9
20260506122040 55 0 0.0 0.0 0.00 0.00 0.00 85 1019.8
20260506121554 56 0 0.0 0.0 0.00 0.00 0.00 85 1019.7
20260506121038 56 0 0.0 0.0 0.00 0.00 0.00 85 1019.6
20260506120538 56 0 0.0 0.0 0.00 0.00 0.00 85 1019.6
20260506120057 56 0 0.0 0.0 0.00 0.00 0.00 85 1019.7
20260506115538 56 0 0.0 0.0 0.00 0.00 0.00 85 1019.5
20260506115037 56 0 0.0 0.0 0.00 0.00 0.00 85 1019.5
20260506114550 56 0 0.0 0.0 0.00 0.00 0.00 85 1019.4
20260506114041 56 0 0.0 0.0 0.00 0.00 0.00 85 1019.4
20260506113538 56 0 0.0 0.0 0.00 0.00 0.00 85 1019.4
20260506113048 56 0 0.0 0.0 0.00 0.00 0.00 85 1019.3
20260506112540 56 0 0.0 0.0 0.00 0.00 0.00 85 1019.2
20260506112038 56 0 0.0 0.0 0.00 0.00 0.00 85 1019.1
20260506111550 56 0 0.0 0.0 0.00 0.00 0.00 85 1019.1
20260506111038 56 0 0.0 0.0 0.00 0.00 0.00 85 1019.0
20260506110538 56 0 0.0 0.0 0.00 0.00 0.00 86 1019.0
20260506110101 56 0 0.0 0.0 0.00 0.00 0.00 86 1018.9
20260506105538 56 0 0.0 0.0 0.00 0.00 0.00 86 1018.8
20260506105039 56 0 0.0 0.0 0.00 0.00 0.00 86 1018.8
20260506104558 56 0 0.0 0.0 0.00 0.00 0.00 86 1018.7
20260506104038 56 0 0.0 0.0 0.00 0.00 0.00 86 1018.6
20260506103538 56 0 0.0 0.0 0.00 0.00 0.00 86 1018.6
20260506103049 57 0 0.0 0.0 0.00 0.00 0.00 86 1018.5
20260506102538 57 0 0.0 0.0 0.00 0.00 0.00 86 1018.5
20260506102040 57 0 0.0 0.0 0.00 0.00 0.00 85 1018.4
20260506101552 57 0 0.0 0.0 0.00 0.00 0.00 85 1018.5
20260506101037 57 0 0.0 0.0 0.00 0.00 0.00 86 1018.4
20260506100538 57 0 0.0 0.0 0.00 0.00 0.00 86 1018.4
20260506100053 57 0 0.0 0.0 0.00 0.00 0.00 86 1018.3
20260506095538 57 0 0.0 0.0 0.00 0.00 0.00 86 1018.3
20260506095039 57 0 0.0 0.0 0.00 0.00 0.00 86 1018.4
20260506094600 57 0 0.0 0.0 0.00 0.00 0.00 86 1018.3
20260506094040 57 0 0.0 0.0 0.00 0.00 0.00 86 1018.2
20260506093538 57 0 0.0 0.0 0.00 0.00 0.00 86 1018.3
20260506093046 57 0 0.0 0.0 0.00 0.00 0.00 86 1018.2
20260506092538 57 0 0.0 0.0 0.00 0.00 0.00 86 1018.2
20260506092038 57 0 0.0 0.0 0.00 0.00 0.00 86 1018.2
20260506091549 57 0 0.0 0.0 0.00 0.00 0.00 86 1018.2
20260506091038 57 0 0.0 0.0 0.00 0.00 0.00 86 1018.1
20260506090537 57 0 0.0 0.0 0.00 0.00 0.00 86 1018.1
20260506090043 57 0 0.0 0.0 0.00 0.00 0.00 86 1018.0
20260506085538 57 0 0.0 0.0 0.00 0.00 0.00 86 1017.9
20260506085038 57 0 0.0 0.0 0.00 0.00 0.00 86 1018.0
20260506084616 57 0 0.0 0.0 0.00 0.00 0.00 86 1018.0
20260506084038 57 0 0.0 0.0 0.00 0.00 0.00 86 1018.0
20260506083538 57 0 0.0 0.0 0.00 0.00 0.00 86 1017.9
20260506083047 57 0 0.0 0.0 0.00 0.00 0.00 86 1017.9
20260506082538 57 0 0.0 0.0 0.00 0.00 0.00 86 1017.9
20260506082039 57 0 0.0 0.0 0.00 0.00 0.00 86 1017.9
20260506081555 57 0 0.0 0.0 0.00 0.00 0.00 86 1017.9
20260506081038 57 0 0.0 0.0 0.00 0.00 0.00 86 1017.9
20260506080538 57 0 0.0 0.0 0.00 0.00 0.00 86 1017.8
20260506073050 57 0 0.0 0.0 0.00 0.00 0.00 86 1017.6
20260506072539 57 0 0.0 0.0 0.00 0.00 0.00 86 1017.6
20260506072039 57 0 0.0 0.0 0.00 0.00 0.00 86 1017.6
20260506071549 57 0 0.0 0.0 0.00 0.00 0.00 86 1017.6
20260506071038 57 0 0.0 0.0 0.00 0.00 0.00 86 1017.6
20260506070538 57 0 0.0 0.0 0.00 0.00 0.00 86 1017.6
20260506062039 57 0 0.0 0.0 0.00 0.00 0.00 85 1017.5
20260506061546 57 0 0.0 0.0 0.00 0.00 0.00 85 1017.4
20260506061039 57 0 0.0 0.0 0.00 0.00 0.00 85 1017.4
20260506060538 57 0 0.0 0.0 0.00 0.00 0.00 85 1017.4
20260506051038 56 0 0.0 0.0 0.00 0.00 0.00 85 1017.1
20260506050538 56 0 0.0 0.0 0.00 0.00 0.00 85 1017.1
20260506045039 56 0 0.0 0.0 0.00 0.00 0.00 85 1017.1
20260506044553 56 0 0.0 0.0 0.00 0.00 0.00 84 1017.1
20260506044041 56 0 0.0 0.0 0.00 0.00 0.00 84 1017.0
20260506043537 56 0 0.0 0.0 0.00 0.00 0.00 84 1017.0
20260506043052 56 0 0.0 0.0 0.00 0.00 0.00 84 1016.9
20260506042539 57 0 0.0 0.0 0.00 0.00 0.00 83 1016.8
20260506042039 57 0 0.0 0.0 0.00 0.00 0.00 82 1016.8
20260506041604 57 0 0.0 0.0 0.00 0.00 0.00 83 1016.6
20260506041038 57 0 0.0 0.0 0.00 0.00 0.00 82 1016.6
20260506040538 58 0 0.0 0.0 0.00 0.00 0.00 81 1016.6
20260506040050 58 0 0.0 0.0 0.00 0.00 0.00 81 1016.5
20260506035538 58 0 0.0 0.0 0.00 0.00 0.00 81 1016.5
20260506035038 58 0 0.0 0.0 0.00 0.00 0.00 81 1016.5
20260506034550 58 0 0.0 0.0 0.00 0.00 0.00 81 1016.4
20260506034041 59 0 0.0 0.0 0.00 0.00 0.00 81 1016.4
20260506033538 59 0 0.0 0.0 0.00 0.00 0.00 80 1016.3
20260506033051 59 0 0.0 0.0 0.00 0.00 0.00 80 1016.3
20260506032538 59 0 0.0 0.0 0.00 0.00 0.00 80 1016.3
20260506032038 59 0 0.0 0.0 0.00 0.00 0.00 80 1016.2
20260506031545 60 0 0.0 0.0 0.00 0.00 0.00 79 1016.2
20260506031037 60 0 0.0 0.0 0.00 0.00 0.00 79 1016.1
20260506030542 60 0 0.0 0.0 0.00 0.00 0.00 79 1016.0
20260506030050 60 0 0.0 0.0 0.00 0.00 0.00 78 1016.0
20260506025538 60 0 0.0 0.0 0.00 0.00 0.00 78 1015.9
20260506025038 60 0 0.0 0.0 0.00 0.00 0.00 78 1015.9
20260506024550 61 0 0.0 0.0 0.00 0.00 0.00 78 1015.9
20260506024040 61 0 0.0 0.0 0.00 0.00 0.00 77 1015.9
20260506023539 61 0 0.0 0.0 0.00 0.00 0.00 77 1015.9
20260506023102 61 0 0.0 0.0 0.00 0.00 0.00 77 1016.0
20260506022539 61 0 0.0 0.0 0.00 0.00 0.00 77 1015.9
20260506022040 61 0 0.0 0.0 0.00 0.00 0.00 76 1015.8
20260506021606 61 0 0.0 0.0 0.00 0.00 0.00 76 1015.8
20260506021039 62 0 0.0 0.0 0.00 0.00 0.00 76 1015.9
20260506020538 62 0 0.0 1.0 0.00 0.00 0.00 75 1015.9
20260506020041 62 0 0.0 2.0 0.00 0.00 0.00 75 1015.9
20260506015541 62 0 0.0 2.0 0.00 0.00 0.00 74 1015.9
20260506015044 62 100 0.0 2.0 0.00 0.00 0.00 75 1015.8
20260506014542 62 0 0.0 0.0 0.00 0.00 0.00 76 1015.9
20260506014042 62 0 0.0 0.0 0.00 0.00 0.00 75 1015.9
20260506013541 62 0 0.0 0.0 0.00 0.00 0.00 75 1015.9
20260506013058 62 0 0.0 0.0 0.00 0.00 0.00 75 1015.9
20260506012539 62 0 0.0 0.0 0.00 0.00 0.00 74 1015.8
20260506012039 62 0 0.0 0.0 0.00 0.00 0.00 75 1015.9
20260506011604 62 0 0.0 0.0 0.00 0.00 0.00 74 1015.8
20260506011038 62 0 0.0 0.0 0.00 0.00 0.00 75 1015.9
20260506010539 62 0 0.0 0.0 0.00 0.00 0.00 74 1015.9
20260506010055 62 0 0.0 0.0 0.00 0.00 0.00 74 1015.8
20260506005540 63 0 0.0 0.0 0.00 0.00 0.00 75 1015.9
20260506005037 63 0 0.0 0.0 0.00 0.00 0.00 74 1015.9
20260506004543 63 0 0.0 0.0 0.00 0.00 0.00 75 1015.9
20260506004039 63 0 0.0 0.0 0.00 0.00 0.00 74 1015.9
20260506003537 63 0 0.0 0.0 0.00 0.00 0.00 73 1016.0
20260506003043 63 0 0.0 0.0 0.00 0.00 0.00 73 1016.0
20260506002536 63 0 0.0 0.0 0.00 0.00 0.00 74 1015.9
20260506002039 62 0 0.0 0.0 0.00 0.00 0.00 74 1016.0
20260506001553 62 0 0.0 0.0 0.00 0.00 0.00 75 1016.0
20260506001038 62 0 0.0 0.0 0.00 0.00 0.00 73 1016.0
20260506000539 63 0 0.0 0.0 0.00 0.00 0.00 74 1016.1
20260506000051 63 0 0.0 0.0 0.00 0.00 0.00 73 1016.1
20260505235539 63 0 0.0 0.0 0.00 0.00 0.00 76 1016.2
20260505235038 63 0 0.0 0.0 0.00 0.00 0.00 73 1016.2
20260505234546 63 0 0.0 0.0 0.00 0.00 0.00 73 1016.3
20260505234039 63 0 0.0 0.0 0.00 0.00 0.00 73 1016.3
20260505233538 63 0 0.0 0.0 0.00 0.00 0.00 73 1016.3
20260505233047 63 0 0.0 0.0 0.00 0.00 0.00 74 1016.2
20260505232538 63 0 0.0 0.0 0.00 0.00 0.00 73 1016.3
20260505232041 63 0 0.0 0.0 0.00 0.00 0.00 75 1016.3
20260505231607 63 0 0.0 0.0 0.00 0.00 0.00 74 1016.3
20260505231039 63 0 0.0 0.0 0.00 0.00 0.00 72 1016.4
20260505230537 63 0 0.0 0.0 0.00 0.00 0.00 73 1016.3
20260505230049 63 0 0.0 0.0 0.00 0.00 0.00 75 1016.4
20260505225539 63 0 0.0 0.0 0.00 0.00 0.00 73 1016.4
20260505225038 63 0 0.0 1.0 0.00 0.00 0.00 75 1016.4
20260505224554 63 0 0.0 2.0 0.00 0.00 0.00 76 1016.4
20260505224039 63 0 0.0 2.0 0.00 0.00 0.00 75 1016.5
20260505223538 62 190 0.0 2.0 0.00 0.00 0.00 74 1016.5
20260505223052 62 0 0.0 3.0 0.00 0.00 0.00 75 1016.5
20260505222542 62 190 0.0 3.0 0.00 0.00 0.00 74 1016.6
20260505222038 63 190 0.0 2.0 0.00 0.00 0.00 72 1016.6
20260505221553 63 129 0.0 2.0 0.00 0.00 0.00 74 1016.7
20260505221038 62 130 0.0 2.0 0.00 0.00 0.00 74 1016.6
20260505220539 62 0 0.0 2.0 0.00 0.00 0.00 73 1016.7
20260505220051 63 0 0.0 2.0 0.00 0.00 0.00 73 1016.6
20260505215538 63 129 0.0 2.0 0.00 0.00 0.00 74 1016.6
20260505215040 63 129 1.0 2.0 0.00 0.00 0.00 73 1016.6
20260505214554 63 91 0.0 2.0 0.00 0.00 0.00 74 1016.7
20260505214038 63 80 0.0 2.0 0.00 0.00 0.00 75 1016.6
20260505213538 63 0 0.0 2.0 0.00 0.00 0.00 76 1016.7
20260505213049 62 128 0.0 2.0 0.00 0.00 0.00 73 1016.7
20260505212538 62 190 0.0 2.0 0.00 0.00 0.00 74 1016.7
20260505212039 62 0 0.0 2.0 0.00 0.00 0.00 75 1016.7
20260505211549 62 105 0.0 3.0 0.00 0.00 0.00 75 1016.8
20260505211039 62 107 0.0 3.0 0.00 0.00 0.00 76 1016.8
20260505210539 62 220 0.0 3.0 0.00 0.00 0.00 75 1016.8
20260505210045 62 221 0.0 4.0 0.00 0.00 0.00 75 1016.8
20260505205541 62 181 1.0 4.0 0.00 0.00 0.00 77 1016.8
20260505205038 62 163 1.0 4.0 0.00 0.00 0.00 77 1016.8